Location: Davidschlag
(48.4333°N, 14.2833°E)
Time: 03:12:19
(UTC+00:00)

Cosmos 841 Rocket - Pass Details

Date: 27 February 2020
Orbit: 746 x 773 km, 74.0° (Epoch: 09 April)

Event Time Altitude Azimuth Distance (km) Brightness Sun altitude
Rises 19:00:32 0° 205° (SSW) 3,180 6.8 -23.5°
Reaches altitude 10° 19:02:53 10° 207° (SSW) 2,263 6.1 -23.9°
Maximum altitude 19:08:01 78° 294° (WNW) 774 3.5 -24.7°
Drops below altitude 10° 19:13:13 10° 21° (NNE) 2,293 5.9 -25.5°
Sets 19:15:36 0° 23° (NNE) 3,227 6.7 -25.9°
